EW2984 Weather Reports


Display with metric or nautical units.
time (UTC)temp
F
wind
direction
speed
MPH
gust
MPH
rain 1hr
in
rain 24hr
in
rain mn
in
humidity
%
barometer
mb
20260904010014 78 230 0.0 0.0 0.00 0.34 0.34 89 1013.5
20260904004513 78 241 0.0 0.0 0.00 0.34 0.34 88 1013.6
20260904003013 78 241 0.0 0.0 0.00 0.34 0.34 87 1013.8
20260904001516 78 241 0.0 1.0 0.00 0.34 0.34 87 1014.0
20260904000013 79 241 0.0 1.0 0.00 0.34 0.34 85 1014.0
20260903234511 79 242 0.0 0.0 0.00 0.34 0.34 85 1013.6
20260903233011 80 242 0.0 0.0 0.00 0.34 0.34 84 1013.3
20260903231510 81 242 0.0 1.0 0.00 0.34 0.34 82 1013.4
20260903230013 81 242 0.0 0.0 0.00 0.34 0.34 81 1013.3
20260903224508 82 242 0.0 0.0 0.00 0.34 0.34 79 1013.4
20260903223009 83 207 0.0 3.0 0.00 0.34 0.34 76 1013.0
20260903221508 84 221 0.0 2.0 0.00 0.34 0.34 74 1013.0
20260903220007 84 222 0.0 4.0 0.00 0.34 0.34 73 1012.9
20260903214509 85 217 0.0 3.0 0.00 0.34 0.34 71 1013.0
20260903213006 86 214 0.0 1.0 0.00 0.34 0.34 71 1012.9
20260903211505 86 208 0.0 3.0 0.00 0.34 0.34 70 1012.8
20260903210003 86 219 1.0 5.0 0.00 0.34 0.34 69 1013.0
20260903204503 87 255 0.0 2.0 0.00 0.34 0.34 69 1013.0
20260903203004 88 206 0.0 3.0 0.00 0.34 0.34 67 1013.1
20260903201501 87 257 0.0 4.0 0.00 0.34 0.34 67 1013.1
20260903200104 88 231 0.0 2.0 0.00 0.34 0.34 68 1013.3
20260903194557 87 226 0.0 4.0 0.00 0.34 0.34 69 1013.5
20260903193053 87 207 0.0 4.0 0.00 0.34 0.34 68 1013.8
20260903191651 87 231 0.0 2.0 0.00 0.34 0.34 68 1014.0
20260903190049 87 219 0.0 4.0 0.00 0.34 0.34 67 1014.2
20260903184545 86 225 0.0 3.0 0.00 0.34 0.34 70 1014.3
20260903183041 85 207 0.0 4.0 0.00 0.34 0.34 74 1014.4
20260903181538 83 219 0.0 4.0 0.00 0.34 0.34 77 1014.5
20260903180044 82 271 0.0 3.0 0.00 0.34 0.34 79 1014.7
20260903174530 81 200 0.0 3.0 0.00 0.46 0.34 81 1014.9
20260903173025 80 228 0.0 2.0 0.00 0.46 0.34 85 1015.1
20260903171529 79 205 0.0 4.0 0.00 0.46 0.34 88 1015.2
20260903170033 78 213 0.0 2.0 0.00 0.65 0.34 93 1015.5
20260903164520 77 234 0.0 1.0 0.00 0.65 0.34 93 1015.5
20260903163021 76 260 0.0 1.0 0.00 0.65 0.34 95 1015.8
20260903161512 74 220 0.0 3.0 0.00 0.65 0.34 97 1016.1
20260903160011 74 63 0.0 4.0 0.02 0.65 0.34 98 1015.9
20260903154510 73 89 0.0 3.0 0.03 0.65 0.34 98 1015.6
20260903153009 73 217 0.0 3.0 0.03 0.65 0.34 98 1016.4
20260903151513 73 295 0.0 2.0 0.03 0.65 0.34 98 1016.7
20260903150029 73 228 0.0 5.0 0.01 0.63 0.32 96 1017.7
20260903144516 74 213 0.0 2.0 0.00 0.62 0.31 95 1017.9
20260903143011 75 330 0.0 2.0 0.00 0.62 0.31 95 1017.9
20260903141507 76 232 0.0 3.0 0.00 0.62 0.31 95 1017.6
20260903140006 75 218 0.0 1.0 0.00 0.62 0.31 97 1016.5
20260903134621 73 212 0.0 1.0 0.00 0.62 0.31 98 1016.4
20260903133101 72 216 0.0 2.0 0.00 0.62 0.31 99 1015.8
20260903131555 71 230 0.0 3.0 0.00 0.62 0.31 99 1016.3
20260903130101 71 217 0.0 0.0 0.00 0.62 0.31 99 1016.5
20260903124557 70 217 0.0 1.0 0.00 0.62 0.31 99 1016.8
20260903123052 70 221 0.0 1.0 0.01 0.62 0.31 100 1016.8
20260903121554 70 219 0.0 1.0 0.01 0.62 0.31 100 1016.4
20260903120100 70 141 0.0 7.0 0.01 0.62 0.31 100 1015.8
20260903114550 69 158 0.0 6.0 0.01 0.62 0.31 100 1015.8
20260903113052 69 121 0.0 2.0 0.01 0.61 0.30 99 1016.4
20260903111546 69 155 0.0 1.0 0.01 0.61 0.30 99 1017.4
20260903110044 69 235 0.0 3.0 0.02 0.61 0.30 99 1017.5
20260903104544 69 210 0.0 1.0 0.23 0.61 0.30 99 1017.4
20260903103043 69 128 0.0 1.0 0.28 0.60 0.28 99 1017.5
20260903101543 69 112 0.0 0.0 0.28 0.60 0.28 99 1018.5
20260903100042 69 140 0.0 3.0 0.28 0.59 0.28 99 1018.0
20260903094554 69 328 0.0 1.0 0.07 0.38 0.07 98 1018.7
20260903093039 69 110 0.0 4.0 0.00 0.31 0.00 98 1017.1
20260903091537 69 131 0.0 4.0 0.00 0.31 0.00 98 1017.2
20260903090036 70 131 1.0 2.0 0.00 0.31 0.00 97 1017.8
20260903084543 70 136 0.0 0.0 0.00 0.32 0.00 97 1017.9
20260903083033 70 105 0.0 1.0 0.00 0.32 0.00 97 1018.1
20260903081532 70 91 0.0 1.0 0.00 0.32 0.00 97 1017.7
20260903080030 71 96 0.0 2.0 0.00 0.32 0.00 97 1017.8
20260903074529 71 89 0.0 3.0 0.00 0.32 0.00 97 1017.7
20260903073029 71 130 0.0 2.0 0.00 0.32 0.00 97 1016.8
20260903071528 71 124 0.0 3.0 0.00 0.32 0.00 97 1016.5
20260903070029 71 160 0.0 1.0 0.00 0.32 0.00 97 1016.5
20260903064525 71 131 0.0 2.0 0.00 0.32 0.00 97 1016.3
20260903063029 71 110 0.0 2.0 0.00 0.32 0.00 96 1016.4
20260903061533 72 117 1.0 3.0 0.00 0.32 0.00 96 1016.6
20260903060022 72 127 0.0 3.0 0.00 0.32 0.00 96 1017.1
20260903054516 72 122 0.0 2.0 0.00 0.32 0.00 97 1017.2
20260903053026 71 120 0.0 1.0 0.00 0.32 0.00 97 1017.6
20260903051512 71 86 0.0 2.0 0.00 0.32 0.00 98 1018.1
20260903050010 71 119 0.0 1.0 0.00 0.34 0.00 98 1018.0
20260903044506 71 176 0.0 2.0 0.00 0.34 0.00 98 1016.9
20260903043012 71 115 0.0 4.0 0.00 0.34 0.00 98 1017.0
20260903041504 71 194 0.0 3.0 0.00 0.34 0.00 98 1016.9
20260903040002 71 125 0.0 5.0 0.00 0.61 0.34 98 1017.0
20260903034502 71 123 1.0 5.0 0.00 0.61 0.34 98 1017.1
20260903033002 71 102 0.0 3.0 0.00 0.61 0.34 97 1017.5
20260903031632 71 132 0.0 3.0 0.00 0.61 0.34 97 1017.6
20260903030100 71 132 0.0 2.0 0.00 0.61 0.34 97 1017.8
20260903024607 71 139 0.0 2.0 0.00 0.67 0.34 97 1017.7
20260903023059 71 107 0.0 4.0 0.00 0.67 0.34 97 1017.3
20260903021559 71 113 0.0 3.0 0.00 0.67 0.34 97 1017.1
20260903020104 71 129 0.0 2.0 0.00 0.67 0.34 97 1017.0
20260903014603 71 110 0.0 0.0 0.00 0.67 0.34 96 1017.3
20260903013057 72 110 0.0 0.0 0.00 0.67 0.34 95 1017.7
20260903011559 72 234 0.0 0.0 0.00 0.67 0.34 95 1017.5